Location: Jackson Park
(37.2862°N, 79.9123°W)
Time: 19:46:15
(UTC+00:00)

Vanguard 2 Rocket - Pass Details

Date: 12 May 2026
Orbit: 553 x 3286 km, 32.9° (Epoch: 6 June)

Event Time Altitude Azimuth Distance (km) Brightness Sun altitude
Rises 16:22:02 0° 233° (SW) 5,317 10.8 67.6°
Reaches altitude 10° 16:25:05 10° 230° (SW) 4,628 10.7 67.9°
Maximum altitude 16:38:57 59° 154° (SSE) 3,207 12.1 69.3°
Drops below altitude 10° 16:58:18 10° 82° (E) 6,230 11.3 70.6°
Sets 17:03:10 0° 80° (E) 7,190 11.5 70.8°
